Regional Weather Roundup
Issued by NWS Columbia, SC

Home | Current Version | Previous Version | Text Only | Print | Product List | Glossary On
Versions: 1 2 3 4 5 6 7 8 9 10 11 12 13 14 15 16 17 18 19 20 21 22 23 24 25 26 27 28 29 30 31 32 33 34 35 36 37 38 39 40 41 42 43 44 45 46 47 48 49 50
000
ASUS42 KCAE 180110
RWRCAE
REGIONAL WEATHER ROUNDUP
NATIONAL WEATHER SERVICE COLUMBIA SC
800 PM EST FRI NOV 17 2017

NOTE: "FAIR" INDICATES FEW OR NO CLOUDS BELOW 12,000 FEET WITH NO
SIGNIFICANT WEATHER AND/OR OBSTRUCTIONS TO VISIBILITY.

NOT ALL STATIONS ARE QUALITY CONTROLLED BY THE NATIONAL
WEATHER SERVICE. USE DATA WITH CAUTION...ESPECIALLY
DEWPOINT OBSERVATIONS.

SCZ001>056-GAZ040-063>065-077-180200-
...UPSTATE SOUTH CAROLINA...

CITY           SKY/WX    TMP DP  RH WIND       PRES   REMARKS
ANDERSON       CLEAR     46  41  82 E3        30.13R
LIBERTY        CLEAR     42  39  91 CALM      30.12S
SPARTANBURG    CLEAR     43  36  75 CALM      30.13R
CLEMSON        CLEAR     50  43  77 CALM      30.13S
GREENVILLE     CLEAR     53  36  52 CALM      30.14R
GREENWOOD      CLEAR     45  38  76 CALM      30.16R
GREER          CLEAR     47  37  68 CALM      30.14R
ROCK HILL      CLEAR     42  34  73 SW3       30.14S
CHESTER        CLEAR     43  34  70 CALM      30.14F
LAURENS        CLEAR     52  32  46 SE5       30.14R


...CENTRAL SOUTH CAROLINA...

CITY           SKY/WX    TMP DP  RH WIND       PRES   REMARKS
COLUMBIA APT   CLEAR     45  41  86 CALM      30.14S
COLUMBIA OWENS CLEAR     46  40  79 CALM      30.15S
MCENTIRE ANGB  CLEAR     41  39  93 VRB2      30.14S
ORANGEBURG     CLEAR     45  40  82 CALM      30.15R
SUMTER SHAW    CLEAR     44  37  76 S3        30.13R
AIKEN          FAIR      43  37  81 CALM      30.16F
BARNWELL         N/A     46  41  81 CALM      30.14S
MANNING        FAIR      41  37  87 MISG      30.16R
CAMDEN         FAIR      43  37  81 CALM      30.15S
LANCASTER      CLEAR     41  37  87 CALM      30.15S
WINNSBORO      CLEAR     50  34  53 SE5       30.14S


...EASTERN AND COASTAL SOUTH CAROLINA...

CITY           SKY/WX    TMP DP  RH WIND       PRES   REMARKS
MYRTLE BEACH   CLEAR     45  42  89 CALM      30.17F
N MYRTLE BCH   CLEAR     42  41  96 CALM      30.16S
CONWAY         FAIR      39  39 100 CALM      30.17S
MARION         FAIR      41  37  87 CALM      30.16F
HARTSVILLE     FAIR      43  34  70 CALM      30.15S
FLORENCE       CLEAR     44  40  85 CALM      30.16S
DARLINGTON     CLEAR     41  37  86 CALM      30.17R
CHARLESTON APT CLEAR     51  45  79 SE5       30.15F
MOUNT PLEASANT FAIR      45  43  93 CALM      30.15F
WALTERBORO     CLEAR     45  43  93 CALM      30.16S
BEAUFORT       CLEAR     54  50  86 NE3       30.15R


...EASTERN GEORGIA...

CITY           SKY/WX    TMP DP  RH WIND       PRES   REMARKS
AUGUSTA BUSH F CLEAR     44  40  85 CALM      30.13S
AUGUSTA DANIEL CLEAR     57  37  47 E3        30.13S
THOMSON        CLEAR     43  40  88 CALM      30.19R
WASHINGTON     FAIR      46  41  81 CALM      30.13R
CLAXTON        FAIR      49  46  90 CALM      30.13S
SYLVANIA       CLEAR     50  45  83 CALM      30.14S
STATESBORO     CLEAR     46  39  75 CALM      30.13S
SAVANNAH       PTCLDY    54  50  86 E7        30.14S


...SOUTHERN NORTH CAROLINA...

CITY           SKY/WX    TMP DP  RH WIND       PRES   REMARKS
CHARLOTTE      CLEAR     50  32  50 SE3       30.14S
MONROE         CLEAR     43  33  68 CALM      30.14R
WADESBORO      CLEAR     39  34  81 CALM      30.15R
RUTHERFORDTON  CLEAR     49  31  50 CALM      30.14S
ASHEVILLE      CLEAR     48  33  56 S5        30.13R

$$



USA.gov is the U.S. government's official web portal to all federal, state and local government web resources and services.